Girona, Spain

8:41 PM CEST on March 30, 2017 (GMT +0200)
Girona

Weather History for LEGE - February, 2013

Change the Weather History Date:

Tuesday, February 26, 2013

  Actual Average Record
Temperature  
Mean Temperature 39 °F -  
Max Temperature 54 °F 62 °F 73 °F (2012)
Min Temperature 24 °F 39 °F 24 °F (2001)
Degree Days  
Heating Degree Days 26    
Moisture  
Dew Point 28 °F    
Average Humidity 79    
Maximum Humidity 100    
Minimum Humidity 32    
Precipitation  
Precipitation 0.00 in 0.07 in - ()
Sea Level Pressure  
Sea Level Pressure 30.11 in    
Wind  
Wind Speed 2 mph ()    
Max Wind Speed 8 mph    
Max Gust Speed -    
Visibility 6.5 miles    
Events      
Averages and records for this station are not official NWS values.
T = Trace of Precipitation, MM = Missing Value Source: Averaged Metar Reports

Daily Weather History Graph

Daily Weather History Graph

Search for Another Location

Airport or City:

Trip Planner

Search our weather history database for the weather conditions in past years. The results will help you decide how hot, cold, wet, or windy it might be!

Date:

Astronomy

Feb. 26, 2013 Rise Set
Actual Time 7:28 AM CET 6:35 PM CET
Civil Twilight 7:00 AM CET 7:03 PM CET
Nautical Twilight 6:28 AM CET 7:36 PM CET
Astronomical Twilight 5:55 AM CET 8:08 PM CET
Moon 7:37 PM CET (2/26) 7:21 AM CET (2/26)
Length of Visible Light 12h 03m
Length of Day
11h 07m
Full, 100% of the Moon is Illuminated
Feb 26
Full
Mar 4
Last Quarter
Mar 11
New
Mar 19
First Quarter
Mar 27
Full

Hourly Weather History & Observations

Time (CET) Temp. Windchill Dew Point Humidity Pressure Visibility Wind Dir Wind Speed Gust Speed Precip Events Conditions
12:00 AM 30.2 °F 26.7 °F 30.2 °F 100% 30.09 in 6.2 mi ENE 3.5 mph - N/A   Partly Cloudy
12:30 AM 30.2 °F - 30.2 °F 100% 30.09 in 6.2 mi Variable 1.2 mph - N/A   Partly Cloudy
1:00 AM 33 °F - 30 °F 84% 30.12 in 12 mi NNW 6.9 mph - -   Scattered Clouds
1:00 AM 30.2 °F 23.4 °F 30.2 °F 100% 30.09 in 6.2 mi NW 6.9 mph - N/A   Partly Cloudy
1:30 AM 28.4 °F - 28.4 °F 100% 30.09 in 6.2 mi Variable 1.2 mph - N/A   Partly Cloudy
2:00 AM 28.4 °F - 28.4 °F 100% 30.09 in 6.2 mi Calm Calm - N/A   Partly Cloudy
2:30 AM 28.4 °F - 28.4 °F 100% 30.09 in 6.2 mi Calm Calm - N/A   Partly Cloudy
3:00 AM 26.6 °F - 26.6 °F 100% 30.09 in 6.2 mi Variable 1.2 mph - N/A   Partly Cloudy
3:30 AM 28.4 °F 24.6 °F 28.4 °F 100% 30.09 in 6.2 mi NNE 3.5 mph - N/A   Partly Cloudy
4:00 AM 28.4 °F - 28.4 °F 100% 30.09 in 6.2 mi Variable 1.2 mph - N/A   Partly Cloudy
4:30 AM 28.4 °F - 28.4 °F 100% 30.09 in 6.2 mi Variable 2.3 mph - N/A   Partly Cloudy
5:00 AM 30.2 °F 25.4 °F 30.2 °F 100% 30.09 in 6.2 mi North 4.6 mph - N/A   Partly Cloudy
5:30 AM 30.2 °F - 28.4 °F 93% 30.09 in 6.2 mi North 2.3 mph - N/A   Partly Cloudy
6:00 AM 26.6 °F - 26.6 °F 100% 30.09 in 6.2 mi Calm Calm - N/A   Partly Cloudy
7:00 AM 28 °F - 26 °F 86% 30.11 in 9 mi Calm Calm - -   Scattered Clouds
7:00 AM 26.6 °F - 26.6 °F 100% 30.09 in 6.2 mi Calm Calm - N/A   Partly Cloudy
7:30 AM 24.8 °F 19.1 °F 24.8 °F 100% 30.09 in 6.2 mi ENE 4.6 mph - N/A   Partly Cloudy
8:00 AM 26.6 °F - 26.6 °F 100% 30.09 in 6.2 mi Variable 1.2 mph - N/A   Partly Cloudy
8:30 AM 26.6 °F - 26.6 °F 100% 30.12 in 6.2 mi NE 1.2 mph - N/A   Partly Cloudy
9:00 AM 32.0 °F - 30.2 °F 93% 30.12 in - Calm Calm - N/A   Clear
9:30 AM 33.8 °F - 32.0 °F 93% 30.12 in - Calm Calm - N/A   Clear
10:00 AM 37.4 °F - 32.0 °F 81% 30.12 in - Calm Calm - N/A   Clear
10:30 AM 37.4 °F - 30.2 °F 75% 30.12 in 6.2 mi Variable 1.2 mph - N/A   Scattered Clouds
11:00 AM 39.2 °F - 32.0 °F 75% 30.12 in 6.2 mi Variable 1.2 mph - N/A   Scattered Clouds
11:30 AM 41.0 °F - 30.2 °F 65% 30.12 in - Variable 2.3 mph - N/A   Clear
1:13 PM 48.2 °F - 19.4 °F 32% 30.12 in 6.2 mi Variable 2.3 mph - N/A   Partly Cloudy
2:30 PM 48.2 °F - 21.2 °F 34% 30.09 in 6.2 mi ENE 2.3 mph - N/A   Partly Cloudy
3:00 PM 50.0 °F - 21.2 °F 32% 30.09 in 6.2 mi Variable 2.3 mph - N/A   Partly Cloudy
3:30 PM 50.0 °F - 23.0 °F 35% 30.09 in 6.2 mi North 1.2 mph - N/A   Partly Cloudy
4:00 PM 48.2 °F - 28.4 °F 46% 30.09 in 6.2 mi SE 8.1 mph - N/A   Scattered Clouds
4:30 PM 46.4 °F 42.4 °F 30.2 °F 53% 30.09 in 6.2 mi SE 8.1 mph - N/A   Partly Cloudy
5:00 PM 46.4 °F 42.4 °F 30.2 °F 53% 30.09 in 6.2 mi South 8.1 mph - N/A   Partly Cloudy
5:30 PM 44.6 °F 40.7 °F 30.2 °F 57% 30.09 in 6.2 mi South 6.9 mph - N/A   Partly Cloudy
6:00 PM 44.6 °F 43.1 °F 30.2 °F 57% 30.09 in 6.2 mi SSW 3.5 mph - N/A   Partly Cloudy
6:30 PM 41.0 °F - 30.2 °F 65% 30.12 in 6.2 mi WSW 2.3 mph - N/A   Partly Cloudy
7:00 PM 43 °F - 31 °F 52% 30.14 in 12 mi SW 1.2 mph - -   Scattered Clouds
7:00 PM 41.0 °F - 30.2 °F 65% 30.12 in 6.2 mi WSW 1.2 mph - N/A   Partly Cloudy
7:30 PM 41.0 °F - 30.2 °F 65% 30.12 in 6.2 mi WSW 2.3 mph - N/A   Partly Cloudy
8:00 PM 39.2 °F - 30.2 °F 70% 30.15 in 6.2 mi WSW 1.2 mph - N/A   Partly Cloudy
8:30 PM 33.8 °F - 28.4 °F 81% 30.15 in 6.2 mi Calm Calm - N/A   Partly Cloudy
9:00 PM 33.8 °F - 28.4 °F 81% 30.15 in 6.2 mi Variable 1.2 mph - N/A   Scattered Clouds
9:30 PM 33.8 °F - 30.2 °F 87% 30.15 in 6.2 mi WNW 1.2 mph - N/A   Scattered Clouds
10:00 PM 32.0 °F - 28.4 °F 87% 30.15 in 6.2 mi Variable 2.3 mph - N/A   Partly Cloudy
10:30 PM 32.0 °F - 28.4 °F 87% 30.15 in 6.2 mi Calm Calm - N/A   Partly Cloudy
11:00 PM 32.0 °F - 28.4 °F 87% 30.15 in 6.2 mi Calm Calm - N/A   Partly Cloudy
11:30 PM 30.2 °F - 26.6 °F 86% 30.15 in 6.2 mi West 2.3 mph - N/A   Partly Cloudy